Year,Month,Day,Hour,Minute,Value (Times are PST for temperature in C)
2011,05,08,00,00,4.70
2011,05,08,00,01,4.70
2011,05,08,00,02,4.70
2011,05,08,00,03,4.60
2011,05,08,00,04,4.60
2011,05,08,00,05,4.60
2011,05,08,00,06,4.60
2011,05,08,00,07,4.60
2011,05,08,00,08,4.50
2011,05,08,00,09,4.50
2011,05,08,00,10,4.50
2011,05,08,00,11,4.50
2011,05,08,00,12,4.50
2011,05,08,00,13,4.40
2011,05,08,00,14,4.40
2011,05,08,00,15,4.40
2011,05,08,00,16,4.40
2011,05,08,00,17,4.40
2011,05,08,00,18,4.40
2011,05,08,00,19,4.40
2011,05,08,00,20,4.40
2011,05,08,00,21,4.30
2011,05,08,00,22,4.40
2011,05,08,00,23,4.30
2011,05,08,00,24,4.30
2011,05,08,00,25,4.30
2011,05,08,00,26,4.30
2011,05,08,00,27,4.30
2011,05,08,00,28,4.30
2011,05,08,00,29,4.30
2011,05,08,00,30,4.30
2011,05,08,00,31,4.30
2011,05,08,00,32,4.30
2011,05,08,00,33,4.20
2011,05,08,00,34,4.20
2011,05,08,00,35,4.20
2011,05,08,00,36,4.20
2011,05,08,00,37,4.20
2011,05,08,00,38,4.20
2011,05,08,00,39,4.20
2011,05,08,00,40,4.20
2011,05,08,00,41,4.10
2011,05,08,00,42,4.10
2011,05,08,00,43,4.10
2011,05,08,00,44,4.10
2011,05,08,00,45,4.10
2011,05,08,00,46,4.10
2011,05,08,00,47,4.00
2011,05,08,00,48,4.00
2011,05,08,00,49,4.00
2011,05,08,00,50,4.00
2011,05,08,00,51,3.90
2011,05,08,00,52,3.90
2011,05,08,00,53,3.90
2011,05,08,00,54,3.90
2011,05,08,00,55,3.90
2011,05,08,00,56,3.90
2011,05,08,00,57,3.90
2011,05,08,00,58,3.90
2011,05,08,00,59,3.90
2011,05,08,01,00,3.80
2011,05,08,01,01,3.80
2011,05,08,01,02,3.80
2011,05,08,01,03,3.80
2011,05,08,01,04,3.80
2011,05,08,01,05,3.80
2011,05,08,01,06,3.70
2011,05,08,01,07,3.70
2011,05,08,01,08,3.70
2011,05,08,01,09,3.70
2011,05,08,01,10,3.70
2011,05,08,01,11,3.70
2011,05,08,01,12,3.70
2011,05,08,01,13,3.70
2011,05,08,01,14,3.60
2011,05,08,01,15,3.60
2011,05,08,01,16,3.60
2011,05,08,01,17,3.60
2011,05,08,01,18,3.60
2011,05,08,01,19,3.60
2011,05,08,01,20,3.60
2011,05,08,01,21,3.60
2011,05,08,01,22,3.60
2011,05,08,01,23,3.50
2011,05,08,01,24,3.50
2011,05,08,01,25,3.50
2011,05,08,01,26,3.50
2011,05,08,01,27,3.50
2011,05,08,01,28,3.40
2011,05,08,01,29,3.40
2011,05,08,01,30,3.40
2011,05,08,01,31,3.40
2011,05,08,01,32,3.40
2011,05,08,01,33,3.40
2011,05,08,01,34,3.40
2011,05,08,01,35,3.40
2011,05,08,01,36,3.40
2011,05,08,01,37,3.40
2011,05,08,01,38,3.40
2011,05,08,01,39,3.40
2011,05,08,01,40,3.40
2011,05,08,01,41,3.40
2011,05,08,01,42,3.40
2011,05,08,01,43,3.40
2011,05,08,01,44,3.40
2011,05,08,01,45,3.40
2011,05,08,01,46,3.40
2011,05,08,01,47,3.40
2011,05,08,01,48,3.40
2011,05,08,01,49,3.40
2011,05,08,01,50,3.40
2011,05,08,01,51,3.40
2011,05,08,01,52,3.30
2011,05,08,01,53,3.40
2011,05,08,01,54,3.30
2011,05,08,01,55,3.30
2011,05,08,01,56,3.30
2011,05,08,01,57,3.40
2011,05,08,01,58,3.40
2011,05,08,01,59,3.40
2011,05,08,02,00,3.40
2011,05,08,02,01,3.40
2011,05,08,02,02,3.40
2011,05,08,02,03,3.40
2011,05,08,02,04,3.40
2011,05,08,02,05,3.40
2011,05,08,02,06,3.40
2011,05,08,02,07,3.30
2011,05,08,02,08,3.30
2011,05,08,02,09,3.30
2011,05,08,02,10,3.30
2011,05,08,02,11,3.30
2011,05,08,02,12,3.30
2011,05,08,02,13,3.30
2011,05,08,02,14,3.30
2011,05,08,02,15,3.30
2011,05,08,02,16,3.30
2011,05,08,02,17,3.30
2011,05,08,02,18,3.30
2011,05,08,02,19,3.30
2011,05,08,02,20,3.30
2011,05,08,02,21,3.30
2011,05,08,02,22,3.30
2011,05,08,02,23,3.30
2011,05,08,02,24,3.30
2011,05,08,02,25,3.30
2011,05,08,02,26,3.30
2011,05,08,02,27,3.30
2011,05,08,02,28,3.30
2011,05,08,02,29,3.40
2011,05,08,02,30,3.40
2011,05,08,02,31,3.50
2011,05,08,02,32,3.50
2011,05,08,02,33,3.50
2011,05,08,02,34,3.60
2011,05,08,02,35,3.60
2011,05,08,02,36,3.60
2011,05,08,02,37,3.60
2011,05,08,02,38,3.60
2011,05,08,02,39,3.70
2011,05,08,02,40,3.70
2011,05,08,02,41,3.70
2011,05,08,02,42,3.70
2011,05,08,02,43,3.70
2011,05,08,02,44,3.70
2011,05,08,02,45,3.70
2011,05,08,02,46,3.70
2011,05,08,02,47,3.70
2011,05,08,02,48,3.70
2011,05,08,02,49,3.70
2011,05,08,02,50,3.70
2011,05,08,02,51,3.70
2011,05,08,02,52,3.80
2011,05,08,02,53,3.80
2011,05,08,02,54,3.80
2011,05,08,02,55,3.80
2011,05,08,02,56,3.80
2011,05,08,02,57,3.80
2011,05,08,02,58,3.80
2011,05,08,02,59,3.80
2011,05,08,03,00,3.80
2011,05,08,03,01,3.80
2011,05,08,03,02,3.80
2011,05,08,03,03,3.80
2011,05,08,03,04,3.80
2011,05,08,03,05,3.80
2011,05,08,03,06,3.80
2011,05,08,03,07,3.80
2011,05,08,03,08,3.80
2011,05,08,03,09,3.80
2011,05,08,03,10,3.70
2011,05,08,03,11,3.70
2011,05,08,03,12,3.70
2011,05,08,03,13,3.70
2011,05,08,03,14,3.70
2011,05,08,03,15,3.70
2011,05,08,03,16,3.70
2011,05,08,03,17,3.70
2011,05,08,03,18,3.70
2011,05,08,03,19,3.70
2011,05,08,03,20,3.70
2011,05,08,03,21,3.70
2011,05,08,03,22,3.70
2011,05,08,03,23,3.70
2011,05,08,03,24,3.70
2011,05,08,03,25,3.70
2011,05,08,03,26,3.60
2011,05,08,03,27,3.60
2011,05,08,03,28,3.60
2011,05,08,03,29,3.60
2011,05,08,03,30,3.60
2011,05,08,03,31,3.60
2011,05,08,03,32,3.60
2011,05,08,03,33,3.60
2011,05,08,03,34,3.60
2011,05,08,03,35,3.60
2011,05,08,03,36,3.70
2011,05,08,03,37,3.70
2011,05,08,03,38,3.70
2011,05,08,03,39,3.70
2011,05,08,03,40,3.70
2011,05,08,03,41,3.70
2011,05,08,03,42,3.70
2011,05,08,03,43,3.70
2011,05,08,03,44,3.70
2011,05,08,03,45,3.70
2011,05,08,03,46,3.70
2011,05,08,03,47,3.70
2011,05,08,03,48,3.70
2011,05,08,03,49,3.70
2011,05,08,03,50,3.70
2011,05,08,03,51,3.70
2011,05,08,03,52,3.70
2011,05,08,03,53,3.70
2011,05,08,03,54,3.70
2011,05,08,03,55,3.70
2011,05,08,03,56,3.70
2011,05,08,03,57,3.70
2011,05,08,03,58,3.60
2011,05,08,03,59,3.60
2011,05,08,04,00,3.60
2011,05,08,04,01,3.60
2011,05,08,04,02,3.60
2011,05,08,04,03,3.60
2011,05,08,04,04,3.70
2011,05,08,04,05,3.70
2011,05,08,04,06,3.70
2011,05,08,04,07,3.70
2011,05,08,04,08,3.70
2011,05,08,04,09,3.70
2011,05,08,04,10,3.70
2011,05,08,04,11,3.70
2011,05,08,04,12,3.70
2011,05,08,04,13,3.70
2011,05,08,04,14,3.70
2011,05,08,04,15,3.70
2011,05,08,04,16,3.70
2011,05,08,04,17,3.70
2011,05,08,04,18,3.70
2011,05,08,04,19,3.70
2011,05,08,04,20,3.70
2011,05,08,04,21,3.70
2011,05,08,04,22,3.70
2011,05,08,04,23,3.70
2011,05,08,04,24,3.70
2011,05,08,04,25,3.70
2011,05,08,04,26,3.70
2011,05,08,04,27,3.70
2011,05,08,04,28,3.70
2011,05,08,04,29,3.70
2011,05,08,04,30,3.70
2011,05,08,04,31,3.70
2011,05,08,04,32,3.70
2011,05,08,04,33,3.70
2011,05,08,04,34,3.70
2011,05,08,04,35,3.70
2011,05,08,04,36,3.70
2011,05,08,04,37,3.70
2011,05,08,04,38,3.60
2011,05,08,04,39,3.60
2011,05,08,04,40,3.70
2011,05,08,04,41,3.70
2011,05,08,04,42,3.70
2011,05,08,04,43,3.70
2011,05,08,04,44,3.70
2011,05,08,04,45,3.70
2011,05,08,04,46,3.70
2011,05,08,04,47,3.70
2011,05,08,04,48,3.70
2011,05,08,04,49,3.70
2011,05,08,04,50,3.70
2011,05,08,04,51,3.70
2011,05,08,04,52,3.70
2011,05,08,04,53,3.70
2011,05,08,04,54,3.70
2011,05,08,04,55,3.70
2011,05,08,04,56,3.70
2011,05,08,04,57,3.70
2011,05,08,04,58,3.70
2011,05,08,04,59,3.80
2011,05,08,05,00,3.80
2011,05,08,05,01,3.80
2011,05,08,05,02,3.80
2011,05,08,05,03,3.80
2011,05,08,05,04,3.80
2011,05,08,05,05,3.80
2011,05,08,05,06,3.80
2011,05,08,05,07,3.80
2011,05,08,05,08,3.80
2011,05,08,05,09,3.80
2011,05,08,05,10,3.80
2011,05,08,05,11,3.80
2011,05,08,05,12,3.80
2011,05,08,05,13,3.80
2011,05,08,05,14,3.80
2011,05,08,05,15,3.80
2011,05,08,05,16,3.80
2011,05,08,05,17,3.80
2011,05,08,05,18,3.80
2011,05,08,05,19,3.80
2011,05,08,05,20,3.80
2011,05,08,05,21,3.80
2011,05,08,05,22,3.80
2011,05,08,05,23,3.80
2011,05,08,05,24,3.80
2011,05,08,05,25,3.80
2011,05,08,05,26,3.80
2011,05,08,05,27,3.80
2011,05,08,05,28,3.80
2011,05,08,05,29,3.80
2011,05,08,05,30,3.80
2011,05,08,05,31,3.80
2011,05,08,05,32,3.80
2011,05,08,05,33,3.80
2011,05,08,05,34,3.80
2011,05,08,05,35,3.80
2011,05,08,05,36,3.80
2011,05,08,05,37,3.80
2011,05,08,05,38,3.80
2011,05,08,05,39,3.80
2011,05,08,05,40,3.80
2011,05,08,05,41,3.80
2011,05,08,05,42,3.80
2011,05,08,05,43,3.80
2011,05,08,05,44,3.80
2011,05,08,05,45,3.80
2011,05,08,05,46,3.80
2011,05,08,05,47,3.80
2011,05,08,05,48,3.80
2011,05,08,05,49,3.80
2011,05,08,05,50,3.80
2011,05,08,05,51,3.80
2011,05,08,05,52,3.80
2011,05,08,05,53,3.80
2011,05,08,05,54,3.80
2011,05,08,05,55,3.80
2011,05,08,05,56,3.80
2011,05,08,05,57,3.80
2011,05,08,05,58,3.80
2011,05,08,05,59,3.80
2011,05,08,06,00,3.80
2011,05,08,06,01,3.80
2011,05,08,06,02,3.80
2011,05,08,06,03,3.80
2011,05,08,06,04,3.80
2011,05,08,06,05,3.80
2011,05,08,06,06,3.90
2011,05,08,06,07,3.90
2011,05,08,06,08,3.90
2011,05,08,06,09,3.90
2011,05,08,06,10,3.90
2011,05,08,06,11,3.90
2011,05,08,06,12,3.90
2011,05,08,06,13,3.90
2011,05,08,06,14,3.90
2011,05,08,06,15,3.90
2011,05,08,06,16,3.90
2011,05,08,06,17,3.90
2011,05,08,06,18,3.90
2011,05,08,06,19,3.90
2011,05,08,06,20,3.90
2011,05,08,06,21,3.90
2011,05,08,06,22,4.00
2011,05,08,06,23,4.00
2011,05,08,06,24,4.00
2011,05,08,06,25,4.00
2011,05,08,06,26,4.00
2011,05,08,06,27,4.00
2011,05,08,06,28,4.00
2011,05,08,06,29,4.00
2011,05,08,06,30,4.00
2011,05,08,06,31,4.00
2011,05,08,06,32,4.00
2011,05,08,06,33,4.00
2011,05,08,06,34,4.00
2011,05,08,06,35,4.00
2011,05,08,06,36,4.00
2011,05,08,06,37,4.00
2011,05,08,06,38,4.10
2011,05,08,06,39,4.10
2011,05,08,06,40,4.10
2011,05,08,06,41,4.10
2011,05,08,06,42,4.10
2011,05,08,06,43,4.10
2011,05,08,06,44,4.10
2011,05,08,06,45,4.10
2011,05,08,06,46,4.10
2011,05,08,06,47,4.10
2011,05,08,06,48,4.10
2011,05,08,06,49,4.10
2011,05,08,06,50,4.10
2011,05,08,06,51,4.10
2011,05,08,06,52,4.10
2011,05,08,06,53,4.20
2011,05,08,06,54,4.20
2011,05,08,06,55,4.20
2011,05,08,06,56,4.20
2011,05,08,06,57,4.20
2011,05,08,06,58,4.30
2011,05,08,06,59,4.30
2011,05,08,07,00,4.30
2011,05,08,07,01,4.30
2011,05,08,07,02,4.40
2011,05,08,07,03,4.40
2011,05,08,07,04,4.40
2011,05,08,07,05,4.40
2011,05,08,07,06,4.40
2011,05,08,07,07,4.40
2011,05,08,07,08,4.40
2011,05,08,07,09,4.40
2011,05,08,07,10,4.40
2011,05,08,07,11,4.40
2011,05,08,07,12,4.40
2011,05,08,07,13,4.50
2011,05,08,07,14,4.50
2011,05,08,07,15,4.50
2011,05,08,07,16,4.60
2011,05,08,07,17,4.60
2011,05,08,07,18,4.60
2011,05,08,07,19,4.60
2011,05,08,07,20,4.60
2011,05,08,07,21,4.60
2011,05,08,07,22,4.70
2011,05,08,07,23,4.70
2011,05,08,07,24,4.70
2011,05,08,07,25,4.70
2011,05,08,07,26,4.70
2011,05,08,07,27,4.80
2011,05,08,07,28,4.80
2011,05,08,07,29,4.80
2011,05,08,07,30,4.90
2011,05,08,07,31,4.90
2011,05,08,07,32,4.90
2011,05,08,07,33,5.00
2011,05,08,07,34,5.00
2011,05,08,07,35,5.10
2011,05,08,07,36,5.10
2011,05,08,07,37,5.10
2011,05,08,07,38,5.10
2011,05,08,07,39,5.10
2011,05,08,07,40,5.10
2011,05,08,07,41,5.10
2011,05,08,07,42,5.10
2011,05,08,07,43,5.20
2011,05,08,07,44,5.20
2011,05,08,07,45,5.10
2011,05,08,07,46,5.20
2011,05,08,07,47,5.20
2011,05,08,07,48,5.20
2011,05,08,07,49,5.20
2011,05,08,07,50,5.20
2011,05,08,07,51,5.20
2011,05,08,07,52,5.20
2011,05,08,07,53,5.30
2011,05,08,07,54,5.30
2011,05,08,07,55,5.30
2011,05,08,07,56,5.30
2011,05,08,07,57,5.30
2011,05,08,07,58,5.30
2011,05,08,07,59,5.30
2011,05,08,08,00,5.30
2011,05,08,08,01,5.30
2011,05,08,08,02,5.40
2011,05,08,08,03,5.40
2011,05,08,08,04,5.40
2011,05,08,08,05,5.40
2011,05,08,08,06,5.40
2011,05,08,08,07,5.40
2011,05,08,08,08,5.40
2011,05,08,08,09,5.40
2011,05,08,08,10,5.40
2011,05,08,08,11,5.50
2011,05,08,08,12,5.50
2011,05,08,08,13,5.50
2011,05,08,08,14,5.50
2011,05,08,08,15,5.40
2011,05,08,08,16,5.40
2011,05,08,08,17,5.40
2011,05,08,08,18,5.40
2011,05,08,08,19,5.50
2011,05,08,08,20,5.50
2011,05,08,08,21,5.50
2011,05,08,08,22,5.60
2011,05,08,08,23,5.60
2011,05,08,08,24,5.60
2011,05,08,08,25,5.70
2011,05,08,08,26,5.70
2011,05,08,08,27,5.70
2011,05,08,08,28,5.70
2011,05,08,08,29,5.70
2011,05,08,08,30,5.70
2011,05,08,08,31,5.70
2011,05,08,08,32,5.70
2011,05,08,08,33,5.70
2011,05,08,08,34,5.70
2011,05,08,08,35,5.70
2011,05,08,08,36,5.70
2011,05,08,08,37,5.70
2011,05,08,08,38,5.70
2011,05,08,08,39,5.70
2011,05,08,08,40,5.60
2011,05,08,08,41,5.60
2011,05,08,08,42,5.60
2011,05,08,08,43,5.60
2011,05,08,08,44,5.60
2011,05,08,08,45,5.60
2011,05,08,08,46,5.60
2011,05,08,08,47,5.60
2011,05,08,08,48,5.60
2011,05,08,08,49,5.60
2011,05,08,08,50,5.60
2011,05,08,08,51,5.60
2011,05,08,08,52,5.70
2011,05,08,08,53,5.70
2011,05,08,08,54,5.80
2011,05,08,08,55,5.80
2011,05,08,08,56,5.90
2011,05,08,08,57,6.00
2011,05,08,08,58,6.10
2011,05,08,08,59,6.20
2011,05,08,09,00,6.20
2011,05,08,09,01,6.20
2011,05,08,09,02,6.20
2011,05,08,09,03,6.20
2011,05,08,09,04,6.20
2011,05,08,09,05,6.20
2011,05,08,09,06,6.20
2011,05,08,09,07,6.20
2011,05,08,09,08,6.10
2011,05,08,09,09,6.10
2011,05,08,09,10,6.10
2011,05,08,09,11,6.10
2011,05,08,09,12,6.10
2011,05,08,09,13,6.10
2011,05,08,09,14,6.10
2011,05,08,09,15,6.10
2011,05,08,09,16,6.20
2011,05,08,09,17,6.20
2011,05,08,09,18,6.20
2011,05,08,09,19,6.20
2011,05,08,09,20,6.30
2011,05,08,09,21,6.30
2011,05,08,09,22,6.30
2011,05,08,09,23,6.40
2011,05,08,09,24,6.50
2011,05,08,09,25,6.60
2011,05,08,09,26,6.60
2011,05,08,09,27,6.70
2011,05,08,09,28,6.80
2011,05,08,09,29,6.90
2011,05,08,09,30,7.00
2011,05,08,09,31,7.00
2011,05,08,09,32,7.00
2011,05,08,09,33,7.00
2011,05,08,09,34,6.90
2011,05,08,09,35,6.90
2011,05,08,09,36,6.90
2011,05,08,09,37,6.80
2011,05,08,09,38,6.90
2011,05,08,09,39,6.90
2011,05,08,09,40,7.00
2011,05,08,09,41,7.10
2011,05,08,09,42,7.20
2011,05,08,09,43,7.30
2011,05,08,09,44,7.40
2011,05,08,09,45,7.40
2011,05,08,09,46,7.50
2011,05,08,09,47,7.50
2011,05,08,09,48,7.60
2011,05,08,09,49,7.70
2011,05,08,09,50,7.80
2011,05,08,09,51,7.80
2011,05,08,09,52,7.90
2011,05,08,09,53,8.00
2011,05,08,09,54,8.00
2011,05,08,09,55,8.00
2011,05,08,09,56,8.10
2011,05,08,09,57,8.10
2011,05,08,09,58,8.20
2011,05,08,09,59,8.20
2011,05,08,10,00,8.20
2011,05,08,10,01,8.20
2011,05,08,10,02,8.20
2011,05,08,10,03,8.20
2011,05,08,10,04,8.20
2011,05,08,10,05,8.30
2011,05,08,10,06,8.30
2011,05,08,10,07,8.30
2011,05,08,10,08,8.30
2011,05,08,10,09,8.40
2011,05,08,10,10,8.30
2011,05,08,10,11,8.30
2011,05,08,10,12,8.30
2011,05,08,10,13,8.30
2011,05,08,10,14,8.30
2011,05,08,10,15,8.20
2011,05,08,10,16,8.20
2011,05,08,10,17,8.20
2011,05,08,10,18,8.10
2011,05,08,10,19,8.10
2011,05,08,10,20,8.10
2011,05,08,10,21,8.10
2011,05,08,10,22,8.20
2011,05,08,10,23,8.20
2011,05,08,10,24,8.20
2011,05,08,10,25,8.30
2011,05,08,10,26,8.30
2011,05,08,10,27,8.40
2011,05,08,10,28,8.40
2011,05,08,10,29,8.40
2011,05,08,10,30,8.50
2011,05,08,10,31,8.50
2011,05,08,10,32,8.50
2011,05,08,10,33,8.50
2011,05,08,10,34,8.50
2011,05,08,10,35,8.50
2011,05,08,10,36,8.60
2011,05,08,10,37,8.60
2011,05,08,10,38,8.70
2011,05,08,10,39,8.80
2011,05,08,10,40,8.80
2011,05,08,10,41,8.90
2011,05,08,10,42,9.00
2011,05,08,10,43,9.10
2011,05,08,10,44,9.20
2011,05,08,10,45,9.30
2011,05,08,10,46,9.30
2011,05,08,10,47,9.30
2011,05,08,10,48,9.20
2011,05,08,10,49,9.20
2011,05,08,10,50,9.10
2011,05,08,10,51,9.10
2011,05,08,10,52,9.10
2011,05,08,10,53,9.10
2011,05,08,10,54,9.10
2011,05,08,10,55,9.10
2011,05,08,10,56,9.20
2011,05,08,10,57,9.30
2011,05,08,10,58,9.30
2011,05,08,10,59,9.30
2011,05,08,11,00,9.30
2011,05,08,11,01,9.40
2011,05,08,11,02,9.50
2011,05,08,11,03,9.50
2011,05,08,11,04,9.60
2011,05,08,11,05,9.60
2011,05,08,11,06,9.60
2011,05,08,11,07,9.70
2011,05,08,11,08,9.70
2011,05,08,11,09,9.80
2011,05,08,11,10,9.90
2011,05,08,11,11,9.80
2011,05,08,11,12,9.80
2011,05,08,11,13,9.80
2011,05,08,11,14,9.90
2011,05,08,11,15,9.90
2011,05,08,11,16,10.00
2011,05,08,11,17,10.00
2011,05,08,11,18,10.10
2011,05,08,11,19,10.10
2011,05,08,11,20,10.20
2011,05,08,11,21,10.20
2011,05,08,11,22,10.30
2011,05,08,11,23,10.30
2011,05,08,11,24,10.40
2011,05,08,11,25,10.50
2011,05,08,11,26,10.50
2011,05,08,11,27,10.60
2011,05,08,11,28,10.60
2011,05,08,11,29,10.70
2011,05,08,11,30,10.80
2011,05,08,11,31,10.80
2011,05,08,11,32,10.80
2011,05,08,11,33,10.90
2011,05,08,11,34,10.90
2011,05,08,11,35,11.00
2011,05,08,11,36,11.00
2011,05,08,11,37,11.10
2011,05,08,11,38,11.20
2011,05,08,11,39,11.30
2011,05,08,11,40,11.40
2011,05,08,11,41,11.50
2011,05,08,11,42,11.60
2011,05,08,11,43,11.60
2011,05,08,11,44,11.60
2011,05,08,11,45,11.70
2011,05,08,11,46,11.70
2011,05,08,11,47,11.80
2011,05,08,11,48,11.80
2011,05,08,11,49,11.80
2011,05,08,11,50,11.80
2011,05,08,11,51,11.80
2011,05,08,11,52,11.80
2011,05,08,11,53,11.80
2011,05,08,11,54,11.70
2011,05,08,11,55,11.70
2011,05,08,11,56,11.60
2011,05,08,11,57,11.60
2011,05,08,11,58,11.40
2011,05,08,11,59,11.20
2011,05,08,12,00,11.10
2011,05,08,12,01,11.00
2011,05,08,12,02,10.90
2011,05,08,12,03,10.90
2011,05,08,12,04,10.90
2011,05,08,12,05,10.90
2011,05,08,12,06,10.90
2011,05,08,12,07,10.90
2011,05,08,12,08,11.00
2011,05,08,12,09,11.00
2011,05,08,12,10,11.00
2011,05,08,12,11,10.90
2011,05,08,12,12,11.00
2011,05,08,12,13,11.00
2011,05,08,12,14,10.90
2011,05,08,12,15,11.00
2011,05,08,12,16,11.00
2011,05,08,12,17,11.10
2011,05,08,12,18,11.10
2011,05,08,12,19,11.20
2011,05,08,12,20,11.30
2011,05,08,12,21,11.40
2011,05,08,12,22,11.50
2011,05,08,12,23,11.50
2011,05,08,12,24,11.60
2011,05,08,12,25,11.70
2011,05,08,12,26,11.80
2011,05,08,12,27,11.90
2011,05,08,12,28,12.00
2011,05,08,12,29,12.00
2011,05,08,12,30,12.00
2011,05,08,12,31,12.00
2011,05,08,12,32,11.90
2011,05,08,12,33,11.90
2011,05,08,12,34,11.90
2011,05,08,12,35,11.90
2011,05,08,12,36,12.00
2011,05,08,12,37,12.00
2011,05,08,12,38,12.00
2011,05,08,12,39,12.00
2011,05,08,12,40,12.10
2011,05,08,12,41,12.20
2011,05,08,12,42,12.30
2011,05,08,12,43,12.30
2011,05,08,12,44,12.30
2011,05,08,12,45,12.30
2011,05,08,12,46,12.40
2011,05,08,12,47,12.40
2011,05,08,12,48,12.40
2011,05,08,12,49,12.40
2011,05,08,12,50,12.40
2011,05,08,12,51,12.30
2011,05,08,12,52,12.20
2011,05,08,12,53,12.10
2011,05,08,12,54,12.10
2011,05,08,12,55,12.10
2011,05,08,12,56,12.00
2011,05,08,12,57,12.00
2011,05,08,12,58,11.90
2011,05,08,12,59,11.90
2011,05,08,13,00,11.90
2011,05,08,13,01,11.90
2011,05,08,13,02,12.00
2011,05,08,13,03,12.00
2011,05,08,13,04,12.10
2011,05,08,13,05,12.20
2011,05,08,13,06,12.30
2011,05,08,13,07,12.40
2011,05,08,13,08,12.50
2011,05,08,13,09,12.60
2011,05,08,13,10,12.70
2011,05,08,13,11,12.80
2011,05,08,13,12,12.90
2011,05,08,13,13,13.00
2011,05,08,13,14,13.00
2011,05,08,13,15,13.10
2011,05,08,13,16,13.20
2011,05,08,13,17,13.30
2011,05,08,13,18,13.40
2011,05,08,13,19,13.40
2011,05,08,13,20,13.30
2011,05,08,13,21,13.20
2011,05,08,13,22,13.10
2011,05,08,13,23,13.00
2011,05,08,13,24,12.90
2011,05,08,13,25,12.90
2011,05,08,13,26,12.90
2011,05,08,13,27,12.90
2011,05,08,13,28,12.80
2011,05,08,13,29,12.80
2011,05,08,13,30,12.90
2011,05,08,13,31,13.00
2011,05,08,13,32,13.10
2011,05,08,13,33,13.20
2011,05,08,13,34,13.20
2011,05,08,13,35,13.20
2011,05,08,13,36,13.10
2011,05,08,13,37,13.00
2011,05,08,13,38,12.90
2011,05,08,13,39,12.80
2011,05,08,13,40,12.70
2011,05,08,13,41,12.60
2011,05,08,13,42,12.50
2011,05,08,13,43,12.50
2011,05,08,13,44,12.50
2011,05,08,13,45,12.60
2011,05,08,13,46,12.60
2011,05,08,13,47,12.70
2011,05,08,13,48,12.70
2011,05,08,13,49,12.80
2011,05,08,13,50,12.80
2011,05,08,13,51,12.90
2011,05,08,13,52,12.90
2011,05,08,13,53,13.00
2011,05,08,13,54,13.10
2011,05,08,13,55,13.10
2011,05,08,13,56,13.20
2011,05,08,13,57,13.30
2011,05,08,13,58,13.40
2011,05,08,13,59,13.60
2011,05,08,14,00,13.70
2011,05,08,14,01,13.80
2011,05,08,14,02,14.00
2011,05,08,14,03,14.10
2011,05,08,14,04,14.20
2011,05,08,14,05,14.20
2011,05,08,14,06,14.20
2011,05,08,14,07,14.20
2011,05,08,14,08,14.20
2011,05,08,14,09,14.10
2011,05,08,14,10,14.00
2011,05,08,14,11,13.90
2011,05,08,14,12,13.90
2011,05,08,14,13,13.90
2011,05,08,14,14,13.90
2011,05,08,14,15,13.90
2011,05,08,14,16,14.00
2011,05,08,14,17,14.10
2011,05,08,14,18,14.20
2011,05,08,14,19,14.30
2011,05,08,14,20,14.30
2011,05,08,14,21,14.40
2011,05,08,14,22,14.40
2011,05,08,14,23,14.30
2011,05,08,14,24,14.20
2011,05,08,14,25,14.20
2011,05,08,14,26,14.20
2011,05,08,14,27,14.10
2011,05,08,14,28,14.00
2011,05,08,14,29,13.90
2011,05,08,14,30,13.90
2011,05,08,14,31,13.90
2011,05,08,14,32,13.90
2011,05,08,14,33,14.00
2011,05,08,14,34,14.10
2011,05,08,14,35,14.10
2011,05,08,14,36,14.10
2011,05,08,14,37,14.00
2011,05,08,14,38,13.90
2011,05,08,14,39,13.90
2011,05,08,14,40,13.80
2011,05,08,14,41,13.70
2011,05,08,14,42,13.70
2011,05,08,14,43,13.70
2011,05,08,14,44,13.60
2011,05,08,14,45,13.50
2011,05,08,14,46,13.40
2011,05,08,14,47,13.40
2011,05,08,14,48,13.40
2011,05,08,14,49,13.40
2011,05,08,14,50,13.50
2011,05,08,14,51,13.50
2011,05,08,14,52,13.50
2011,05,08,14,53,13.50
2011,05,08,14,54,13.50
2011,05,08,14,55,13.50
2011,05,08,14,56,13.60
2011,05,08,14,57,13.60
2011,05,08,14,58,13.70
2011,05,08,14,59,13.70
2011,05,08,15,00,13.70
2011,05,08,15,01,13.70
2011,05,08,15,02,13.70
2011,05,08,15,03,13.70
2011,05,08,15,04,13.70
2011,05,08,15,05,13.80
2011,05,08,15,06,13.80
2011,05,08,15,07,13.90
2011,05,08,15,08,13.80
2011,05,08,15,09,13.80
2011,05,08,15,10,13.80
2011,05,08,15,11,13.80
2011,05,08,15,12,13.80
2011,05,08,15,13,13.80
2011,05,08,15,14,14.00
2011,05,08,15,15,14.10
2011,05,08,15,16,14.10
2011,05,08,15,17,14.10
2011,05,08,15,18,14.10
2011,05,08,15,19,14.10
2011,05,08,15,20,14.00
2011,05,08,15,21,14.00
2011,05,08,15,22,14.00
2011,05,08,15,23,13.90
2011,05,08,15,24,13.80
2011,05,08,15,25,13.80
2011,05,08,15,26,13.80
2011,05,08,15,27,13.80
2011,05,08,15,28,13.90
2011,05,08,15,29,13.90
2011,05,08,15,30,13.90
2011,05,08,15,31,13.90
2011,05,08,15,32,13.90
2011,05,08,15,33,13.90
2011,05,08,15,34,13.80
2011,05,08,15,35,13.70
2011,05,08,15,36,13.60
2011,05,08,15,37,13.60
2011,05,08,15,38,13.60
2011,05,08,15,39,13.60
2011,05,08,15,40,13.60
2011,05,08,15,41,13.60
2011,05,08,15,42,13.60
2011,05,08,15,43,13.60
2011,05,08,15,44,13.60
2011,05,08,15,45,13.60
2011,05,08,15,46,13.50
2011,05,08,15,47,13.40
2011,05,08,15,48,13.30
2011,05,08,15,49,13.30
2011,05,08,15,50,13.30
2011,05,08,15,51,13.30
2011,05,08,15,52,13.30
2011,05,08,15,53,13.30
2011,05,08,15,54,13.40
2011,05,08,15,55,13.40
2011,05,08,15,56,13.40
2011,05,08,15,57,13.50
2011,05,08,15,58,13.50
2011,05,08,15,59,13.50
2011,05,08,16,00,13.50
2011,05,08,16,01,13.50
2011,05,08,16,02,13.60
2011,05,08,16,03,13.60
2011,05,08,16,04,13.60
2011,05,08,16,05,13.60
2011,05,08,16,06,13.50
2011,05,08,16,07,13.50
2011,05,08,16,08,13.50
2011,05,08,16,09,13.40
2011,05,08,16,10,13.40
2011,05,08,16,11,13.40
2011,05,08,16,12,13.30
2011,05,08,16,13,13.30
2011,05,08,16,14,13.30
2011,05,08,16,15,13.20
2011,05,08,16,16,13.20
2011,05,08,16,17,13.20
2011,05,08,16,18,13.20
2011,05,08,16,19,13.20
2011,05,08,16,20,13.30
2011,05,08,16,21,13.40
2011,05,08,16,22,13.50
2011,05,08,16,23,13.60
2011,05,08,16,24,13.70
2011,05,08,16,25,13.80
2011,05,08,16,26,13.90
2011,05,08,16,27,13.90
2011,05,08,16,28,14.00
2011,05,08,16,29,14.00
2011,05,08,16,30,14.10
2011,05,08,16,31,14.30
2011,05,08,16,32,14.30
2011,05,08,16,33,14.30
2011,05,08,16,34,14.20
2011,05,08,16,35,14.20
2011,05,08,16,36,14.20
2011,05,08,16,37,14.20
2011,05,08,16,38,14.20
2011,05,08,16,39,14.10
2011,05,08,16,40,14.10
2011,05,08,16,41,14.10
2011,05,08,16,42,14.20
2011,05,08,16,43,14.20
2011,05,08,16,44,14.20
2011,05,08,16,45,14.20
2011,05,08,16,46,14.30
2011,05,08,16,47,14.40
2011,05,08,16,48,14.40
2011,05,08,16,49,14.50
2011,05,08,16,50,14.50
2011,05,08,16,51,14.50
2011,05,08,16,52,14.40
2011,05,08,16,53,14.20
2011,05,08,16,54,14.10
2011,05,08,16,55,14.00
2011,05,08,16,56,13.90
2011,05,08,16,57,13.90
2011,05,08,16,58,13.80
2011,05,08,16,59,13.80
2011,05,08,17,00,13.70
2011,05,08,17,01,13.70
2011,05,08,17,02,13.70
2011,05,08,17,03,13.70
2011,05,08,17,04,13.70
2011,05,08,17,05,13.70
2011,05,08,17,06,13.70
2011,05,08,17,07,13.70
2011,05,08,17,08,13.70
2011,05,08,17,09,13.80
2011,05,08,17,10,13.70
2011,05,08,17,11,13.60
2011,05,08,17,12,13.40
2011,05,08,17,13,13.20
2011,05,08,17,14,12.90
2011,05,08,17,15,12.60
2011,05,08,17,16,12.40
2011,05,08,17,17,12.30
2011,05,08,17,18,12.20
2011,05,08,17,19,12.10
2011,05,08,17,20,12.10
2011,05,08,17,21,12.00
2011,05,08,17,22,12.00
2011,05,08,17,23,11.90
2011,05,08,17,24,11.90
2011,05,08,17,25,11.90
2011,05,08,17,26,11.90
2011,05,08,17,27,11.80
2011,05,08,17,28,11.80
2011,05,08,17,29,11.90
2011,05,08,17,30,11.90
2011,05,08,17,31,11.90
2011,05,08,17,32,11.90
2011,05,08,17,33,12.00
2011,05,08,17,34,12.00
2011,05,08,17,35,12.00
2011,05,08,17,36,12.10
2011,05,08,17,37,12.10
2011,05,08,17,38,12.10
2011,05,08,17,39,12.10
2011,05,08,17,40,12.10
2011,05,08,17,41,12.00
2011,05,08,17,42,12.00
2011,05,08,17,43,12.00
2011,05,08,17,44,12.00
2011,05,08,17,45,12.00
2011,05,08,17,46,12.00
2011,05,08,17,47,12.00
2011,05,08,17,48,12.00